FW2882 Weather Reports


Display with metric or nautical units.
time (UTC)temp
F
wind
direction
speed
MPH
gust
MPH
rain 1hr
in
rain 24hr
in
rain mn
in
humidity
%
barometer
mb
20260906102032 70 90 2.0 3.0 0.00 0.00 0.00 91 1016.8
20260906102004 71 90 1.0 1.0 0.00 0.00 0.00 91 1015.6
20260906101524 70 98 1.0 4.0 0.00 0.00 0.00 91 1016.8
20260906101026 70 83 2.0 4.0 0.00 0.00 0.00 91 1016.8
20260906100525 71 94 1.0 4.0 0.00 0.00 0.00 90 1016.7
20260906100504 71 88 1.0 1.0 0.00 0.00 0.00 90 1015.6
20260906100004 71 101 1.0 1.0 0.00 0.00 0.00 90 1015.6
20260906095524 71 92 0.0 4.0 0.00 0.00 0.00 90 1016.8
20260906095504 71 92 0.0 0.0 0.00 0.00 0.00 90 1015.6
20260906095029 71 92 1.0 4.0 0.00 0.00 0.00 90 1016.7
20260906095004 71 92 1.0 1.0 0.00 0.00 0.00 90 1015.6
20260906094030 71 76 0.0 4.0 0.00 0.00 0.00 90 1016.7
20260906094004 71 76 1.0 1.0 0.00 0.00 0.00 90 1015.6
20260906093524 71 96 2.0 3.0 0.00 0.00 0.00 90 1016.7
20260906093504 71 100 1.0 1.0 0.00 0.00 0.00 90 1015.6
20260906093033 71 101 0.0 3.0 0.00 0.00 0.00 90 1016.8
20260906092525 71 103 0.0 3.0 0.00 0.00 0.00 90 1016.7
20260906092505 72 102 1.0 1.0 0.00 0.00 0.00 90 1015.6
20260906092026 71 51 0.0 6.0 0.00 0.00 0.00 89 1016.6
20260906092004 72 51 1.0 1.0 0.00 0.00 0.00 89 1015.6
20260906091525 71 87 1.0 6.0 0.00 0.00 0.00 89 1016.6
20260906091504 72 86 1.0 1.0 0.00 0.00 0.00 89 1015.6
20260906091005 72 86 1.0 1.0 0.00 0.00 0.00 89 1015.2
20260906090525 71 78 1.0 4.0 0.00 0.00 0.00 89 1016.5
20260906090504 72 78 2.0 2.0 0.00 0.00 0.00 89 1015.2
20260906090029 71 86 2.0 4.0 0.00 0.00 0.00 88 1016.5
20260906085523 71 84 2.0 4.0 0.00 0.00 0.00 88 1016.5
20260906085030 71 84 2.0 4.0 0.00 0.00 0.00 88 1016.6
20260906085004 72 88 1.0 1.0 0.00 0.00 0.00 88 1015.2
20260906084523 71 57 0.0 3.0 0.00 0.00 0.00 88 1016.6
20260906084027 71 81 1.0 6.0 0.00 0.00 0.00 88 1016.7
20260906083524 71 88 3.0 6.0 0.00 0.00 0.00 88 1016.7
20260906083504 72 86 1.0 1.0 0.00 0.00 0.00 88 1015.6
20260906083027 71 90 2.0 3.0 0.00 0.00 0.00 88 1016.7
20260906082523 72 88 1.0 3.0 0.00 0.00 0.00 88 1016.8
20260906082504 72 88 1.0 1.0 0.00 0.00 0.00 88 1015.6
20260906081524 72 110 0.0 3.0 0.00 0.00 0.00 88 1016.8
20260906081504 72 110 0.0 0.0 0.00 0.00 0.00 88 1015.6
20260906081032 72 111 3.0 3.0 0.00 0.00 0.00 88 1016.7
20260906081004 72 67 1.0 1.0 0.00 0.00 0.00 88 1015.6
20260906080524 72 68 1.0 3.0 0.00 0.00 0.00 88 1016.7
20260906080031 72 86 0.0 3.0 0.00 0.00 0.00 87 1016.7
20260906080004 72 86 0.0 0.0 0.00 0.00 0.00 87 1015.6
20260906075524 72 96 0.0 2.0 0.00 0.00 0.00 87 1016.6
20260906075029 72 93 0.0 2.0 0.00 0.00 0.00 87 1016.7
20260906074525 72 95 0.0 2.0 0.00 0.00 0.00 87 1016.7
20260906074029 72 95 0.0 2.0 0.00 0.00 0.00 87 1016.7
20260906074004 72 95 0.0 0.0 0.00 0.00 0.00 87 1015.6
20260906073524 72 101 1.0 2.0 0.00 0.00 0.00 87 1016.7
20260906073504 72 102 0.0 0.0 0.00 0.00 0.00 87 1015.6
20260906073026 72 101 0.0 3.0 0.00 0.00 0.00 87 1016.7
20260906072524 72 101 0.0 3.0 0.00 0.00 0.00 87 1016.6
20260906072028 72 80 0.0 2.0 0.00 0.00 0.00 87 1016.6
20260906072004 72 80 0.0 0.0 0.00 0.00 0.00 87 1015.2
20260906071525 72 86 0.0 3.0 0.00 0.00 0.00 87 1016.6
20260906071504 72 86 0.0 0.0 0.00 0.00 0.00 87 1015.2
20260906071031 72 86 1.0 3.0 0.00 0.00 0.00 87 1016.6
20260906070524 72 94 0.0 0.0 0.00 0.00 0.00 87 1016.6
20260906070504 72 94 0.0 0.0 0.00 0.00 0.00 87 1015.2
20260906070029 72 94 0.0 1.0 0.00 0.00 0.00 88 1016.7
20260906070004 72 94 0.0 0.0 0.00 0.00 0.00 88 1015.6
20260906065004 72 94 0.0 0.0 0.00 0.00 0.00 88 1015.6
20260906063525 72 79 0.0 3.0 0.00 0.00 0.00 88 1016.7
20260906063505 72 79 0.0 0.0 0.00 0.00 0.00 88 1015.6
20260906063029 72 70 0.0 3.0 0.00 0.00 0.00 88 1016.7
20260906062524 72 79 0.0 3.0 0.00 0.00 0.00 88 1016.7
20260906062026 72 77 2.0 3.0 0.00 0.00 0.00 88 1016.7
20260906061524 72 77 0.0 2.0 0.00 0.00 0.00 88 1016.8
20260906061505 72 77 0.0 0.0 0.00 0.00 0.00 88 1015.6
20260906061030 72 78 0.0 3.0 0.00 0.00 0.00 88 1016.7
20260906060524 72 80 0.0 3.0 0.00 0.00 0.00 87 1016.7
20260906060504 72 80 0.0 0.0 0.00 0.00 0.00 87 1015.2
20260906060031 72 82 0.0 3.0 0.00 0.00 0.00 87 1016.6
20260906055527 72 84 0.0 6.0 0.00 0.00 0.00 87 1016.5
20260906055505 73 84 1.0 1.0 0.00 0.00 0.00 87 1015.2
20260906055030 72 82 2.0 6.0 0.00 0.00 0.00 87 1016.4
20260906054527 72 94 3.0 6.0 0.00 0.00 0.00 87 1016.2
20260906054504 73 73 1.0 1.0 0.00 0.00 0.00 87 1014.9
20260906054032 72 78 1.0 6.0 0.00 0.00 0.00 87 1016.2
20260906053528 72 94 0.0 7.0 0.00 0.00 0.00 87 1016.2
20260906053504 73 94 1.0 1.0 0.00 0.00 0.00 87 1014.9
20260906052528 72 115 1.0 3.0 0.00 0.00 0.00 88 1016.2
20260906052504 73 117 1.0 1.0 0.00 0.00 0.00 88 1014.9
20260906052029 72 96 0.0 6.0 0.00 0.00 0.00 88 1016.2
20260906052004 73 96 1.0 1.0 0.00 0.00 0.00 88 1014.9
20260906051528 73 91 0.0 6.0 0.00 0.00 0.00 88 1016.2
20260906051505 73 91 1.0 1.0 0.00 0.00 0.00 88 1014.9
20260906050528 73 98 0.0 4.0 0.00 0.00 0.00 88 1016.1
20260906050504 73 98 1.0 1.0 0.00 0.00 0.00 88 1014.9
20260906050005 73 102 2.0 2.0 0.00 0.00 0.00 88 1014.6
20260906045527 73 90 0.0 8.0 0.00 0.00 0.00 88 1015.9
20260906045004 73 88 2.0 2.0 0.00 0.00 0.00 88 1014.6
20260906044526 73 70 2.0 6.0 0.00 0.00 0.00 88 1015.7
20260906044031 73 86 0.0 5.0 0.00 0.00 0.00 87 1015.7
20260906044005 73 85 2.0 2.0 0.00 0.00 0.00 87 1014.2
20260906043526 73 109 4.0 5.0 0.00 0.00 0.00 87 1015.8
20260906043030 73 88 2.0 8.0 0.00 0.00 0.00 88 1015.8
20260906043004 74 84 1.0 1.0 0.00 0.00 0.00 88 1014.6
20260906042526 73 90 0.0 8.0 0.00 0.00 0.00 88 1015.7
20260906042035 73 75 2.0 8.0 0.00 0.00 0.00 88 1015.7
20260906041526 73 86 3.0 4.0 0.00 0.00 0.00 88 1015.7
20260906041035 73 86 2.0 4.0 0.00 0.00 0.00 88 1015.7
20260906041005 74 86 1.0 1.0 0.00 0.00 0.00 88 1014.6
20260906040526 73 84 1.0 7.0 0.00 0.00 0.00 88 1015.6
20260906040504 74 95 1.0 1.0 0.00 0.00 0.00 88 1014.2
20260906040029 73 85 2.0 7.0 0.00 0.00 0.00 88 1015.6
20260906035526 74 61 0.0 4.0 0.00 0.00 0.00 89 1015.6
20260906035029 74 92 2.0 4.0 0.00 0.00 0.00 89 1015.6
20260906035004 74 92 1.0 1.0 0.00 0.00 0.00 89 1014.2
20260906034527 74 69 1.0 4.0 0.00 0.00 0.00 89 1015.6
20260906034029 74 92 2.0 4.0 0.00 0.00 0.00 89 1015.6
20260906034004 74 101 1.0 1.0 0.00 0.00 0.00 89 1014.2
20260906033527 74 80 0.0 6.0 0.00 0.00 0.00 89 1015.5
20260906033036 74 90 4.0 6.0 0.00 0.00 0.00 89 1015.5
20260906032029 74 92 4.0 6.0 0.00 0.00 0.00 89 1015.4
20260906032004 74 98 1.0 1.0 0.00 0.00 0.00 89 1013.9
20260906031526 74 65 3.0 4.0 0.00 0.00 0.00 89 1015.4
20260906031028 74 81 2.0 6.0 0.00 0.00 0.00 89 1015.3
20260906031004 74 81 0.0 0.0 0.00 0.00 0.00 89 1013.9
20260906030526 74 76 1.0 5.0 0.00 0.00 0.00 89 1015.4
20260906030504 74 76 0.0 0.0 0.00 0.00 0.00 89 1013.9
20260906030028 74 65 2.0 5.0 0.00 0.00 0.00 89 1015.3
20260906030004 74 73 0.0 0.0 0.00 0.00 0.00 89 1013.9
20260906025526 73 83 2.0 3.0 0.00 0.00 0.00 89 1015.4
20260906025504 74 104 0.0 0.0 0.00 0.00 0.00 89 1014.2
20260906025030 73 106 2.0 3.0 0.00 0.00 0.00 89 1015.4
20260906024527 73 85 1.0 4.0 0.00 0.00 0.00 89 1015.4
20260906024504 74 85 1.0 1.0 0.00 0.00 0.00 89 1013.9
20260906024027 73 82 0.0 4.0 0.00 0.00 0.00 89 1015.6
20260906023526 73 76 0.0 2.0 0.00 0.00 0.00 89 1015.5
20260906023504 74 76 0.0 0.0 0.00 0.00 0.00 89 1014.2
20260906023034 73 92 0.0 2.0 0.00 0.00 0.00 89 1015.7
20260906022526 73 29 1.0 2.0 0.00 0.00 0.00 89 1015.6
20260906022504 74 67 0.0 0.0 0.00 0.00 0.00 89 1014.2
20260906021526 73 52 0.0 4.0 0.00 0.00 0.00 89 1015.6
20260906021033 73 74 0.0 3.0 0.00 0.00 0.00 89 1015.6
20260906020526 73 53 0.0 2.0 0.00 0.00 0.00 88 1015.7
20260906020504 74 53 0.0 0.0 0.00 0.00 0.00 88 1014.2
20260906020029 73 49 0.0 0.0 0.00 0.00 0.00 88 1015.7
20260906020004 73 49 0.0 0.0 0.00 0.00 0.00 88 1014.2
20260906015527 73 49 0.0 1.0 0.00 0.00 0.00 88 1015.7
20260906015504 73 49 0.0 0.0 0.00 0.00 0.00 88 1014.2
20260906015036 73 49 0.0 2.0 0.00 0.00 0.00 87 1015.7
20260906014527 73 64 0.0 2.0 0.00 0.00 0.00 87 1015.4
20260906014504 73 64 0.0 0.0 0.00 0.00 0.00 87 1014.2
20260906014030 73 64 0.0 3.0 0.00 0.00 0.00 87 1015.4
20260906013529 73 68 0.0 3.0 0.00 0.00 0.00 87 1015.3
20260906013504 73 68 1.0 1.0 0.00 0.00 0.00 87 1013.9
20260906013029 73 350 1.0 3.0 0.00 0.00 0.00 87 1015.1
20260906012504 73 76 1.0 1.0 0.00 0.00 0.00 87 1013.5
20260906012035 73 73 0.0 3.0 0.00 0.00 0.00 87 1015.0
20260906011527 73 70 0.0 3.0 0.00 0.00 0.00 87 1015.1
20260906010527 73 72 0.0 3.0 0.00 0.00 0.00 87 1015.0
20260906010505 73 72 0.0 0.0 0.00 0.00 0.00 87 1013.5
20260906010004 73 54 0.0 0.0 0.00 0.00 0.00 87 1013.5
20260906005526 73 38 1.0 4.0 0.00 0.00 0.00 87 1014.9
20260906005504 73 38 0.0 0.0 0.00 0.00 0.00 87 1013.5
20260906005035 73 77 1.0 6.0 0.00 0.00 0.00 87 1014.8
20260906004526 73 295 0.0 6.0 0.00 0.00 0.00 87 1014.7
20260906004504 73 79 0.0 0.0 0.00 0.00 0.00 87 1013.2
20260906004030 73 51 0.0 3.0 0.00 0.00 0.00 86 1014.6
20260906004004 74 67 0.0 0.0 0.00 0.00 0.00 86 1013.2
20260906003526 73 55 0.0 4.0 0.00 0.00 0.00 86 1014.5
20260906003035 73 74 0.0 7.0 0.00 0.00 0.00 86 1014.6
20260906003004 74 74 0.0 0.0 0.00 0.00 0.00 86 1013.2
20260906002526 73 350 1.0 6.0 0.00 0.00 0.00 86 1014.6
20260906002004 74 78 1.0 1.0 0.00 0.00 0.00 86 1013.2
20260906001526 74 121 1.0 3.0 0.00 0.00 0.00 86 1014.6
20260906001028 74 62 1.0 5.0 0.00 0.00 0.00 86 1014.5
20260906001004 74 57 1.0 1.0 0.00 0.00 0.00 86 1013.2
20260906000527 74 78 1.0 5.0 0.00 0.00 0.00 85 1014.5
20260906000504 74 63 1.0 1.0 0.00 0.00 0.00 85 1013.2
20260906000029 74 26 1.0 4.0 0.00 0.00 0.00 85 1014.4
20260905235504 75 58 1.0 1.0 0.00 0.00 0.00 85 1013.2
20260905235035 74 5 1.0 5.0 0.00 0.00 0.00 85 1014.5
20260905234504 75 59 1.0 1.0 0.00 0.00 0.00 85 1012.9
20260905234028 75 324 1.0 4.0 0.00 0.00 0.00 85 1014.4
20260905234004 75 317 1.0 1.0 0.00 0.00 0.00 85 1012.9
20260905233527 75 73 1.0 4.0 0.00 0.00 0.00 85 1014.3
20260905233029 75 36 2.0 4.0 0.00 0.00 0.00 85 1014.3
20260905233004 76 35 1.0 1.0 0.00 0.00 0.00 85 1012.9
20260905232526 75 338 0.0 4.0 0.00 0.00 0.00 84 1014.3
20260905232504 76 338 1.0 1.0 0.00 0.00 0.00 84 1012.9
20260905232028 75 74 1.0 4.0 0.00 0.00 0.00 84 1014.3
20260905231504 76 53 1.0 1.0 0.00 0.00 0.00 83 1012.9
20260905231028 76 66 0.0 5.0 0.00 0.00 0.00 84 1014.4
20260905230504 76 41 1.0 1.0 0.00 0.00 0.00 83 1012.9
20260905230031 76 60 1.0 4.0 0.00 0.00 0.00 83 1014.5
20260905225527 76 49 0.0 4.0 0.00 0.00 0.00 82 1014.4
20260905225504 76 50 0.0 0.0 0.00 0.00 0.00 82 1012.9
20260905224527 76 93 4.0 4.0 0.00 0.00 0.00 82 1014.2
20260905224029 76 49 0.0 4.0 0.00 0.00 0.00 81 1014.2
20260905224004 77 49 0.0 0.0 0.00 0.00 0.00 81 1012.9
20260905223526 76 63 2.0 5.0 0.00 0.00 0.00 81 1014.2
20260905223027 76 56 2.0 4.0 0.00 0.00 0.00 81 1014.3
20260905223004 77 49 1.0 1.0 0.00 0.00 0.00 81 1012.9
20260905222526 77 57 1.0 6.0 0.00 0.00 0.00 81 1014.3
20260905222035 77 76 1.0 7.0 0.00 0.00 0.00 80 1014.4
20260905222005 77 76 1.0 1.0 0.00 0.00 0.00 80 1012.9
20260905221526 77 60 3.0 4.0 0.00 0.00 0.00 81 1014.5
20260905221029 77 110 0.0 5.0 0.00 0.00 0.00 80 1014.5
20260905221004 78 110 1.0 1.0 0.00 0.00 0.00 80 1012.9
20260905220526 77 65 1.0 5.0 0.00 0.00 0.00 80 1014.4
20260905220033 78 63 2.0 4.0 0.00 0.00 0.00 79 1014.5
20260905220004 78 47 2.0 2.0 0.00 0.00 0.00 79 1012.9
20260905215526 78 80 1.0 6.0 0.00 0.00 0.00 79 1014.4
20260905215027 78 107 2.0 6.0 0.00 0.00 0.00 78 1014.3
20260905215004 79 64 2.0 2.0 0.00 0.00 0.00 78 1012.9
20260905214526 79 115 0.0 6.0 0.00 0.00 0.00 77 1014.4
20260905214504 79 277 2.0 2.0 0.00 0.00 0.00 77 1012.9
20260905214028 79 15 2.0 6.0 0.00 0.00 0.00 76 1014.3
20260905214004 80 86 2.0 2.0 0.00 0.00 0.00 76 1012.9
20260905213504 80 30 1.0 1.0 0.00 0.00 0.00 75 1012.5
20260905213028 80 90 2.0 3.0 0.00 0.00 0.00 75 1014.2
20260905212527 81 26 2.0 3.0 0.00 0.00 0.00 74 1014.1
20260905211526 81 78 0.0 4.0 0.00 0.00 0.00 74 1014.1
20260905211504 82 78 1.0 1.0 0.00 0.00 0.00 74 1012.5
20260905211029 82 49 0.0 5.0 0.00 0.00 0.00 74 1014.0
20260905210528 82 82 4.0 5.0 0.00 0.00 0.00 73 1014.1
20260905210030 82 43 2.0 5.0 0.00 0.00 0.00 74 1014.0
20260905210004 83 306 1.0 1.0 0.00 0.00 0.00 74 1012.5
20260905205527 82 67 0.0 5.0 0.00 0.00 0.00 74 1014.0
20260905205504 82 67 1.0 1.0 0.00 0.00 0.00 74 1012.5
20260905205030 82 72 2.0 4.0 0.00 0.00 0.00 74 1014.0
20260905204526 82 20 2.0 4.0 0.00 0.00 0.00 73 1014.0
20260905204504 83 16 1.0 1.0 0.00 0.00 0.00 73 1012.5
20260905203504 83 57 1.0 1.0 0.00 0.00 0.00 72 1012.5
20260905203035 83 84 4.0 6.0 0.00 0.00 0.00 72 1014.2
20260905202527 84 36 1.0 4.0 0.00 0.00 0.00 71 1014.2
20260905202504 84 68 1.0 1.0 0.00 0.00 0.00 71 1012.5
20260905202031 84 259 1.0 4.0 0.00 0.00 0.00 70 1014.2
20260905201527 84 329 2.0 4.0 0.00 0.00 0.00 70 1014.2
20260905201034 84 71 3.0 4.0 0.00 0.00 0.00 69 1014.2
20260905201004 85 33 1.0 1.0 0.00 0.00 0.00 69 1012.5
20260905200526 85 59 3.0 3.0 0.00 0.00 0.00 69 1014.1
20260905200036 85 146 1.0 4.0 0.00 0.00 0.00 71 1014.2
20260905200004 86 146 1.0 1.0 0.00 0.00 0.00 71 1012.5
20260905195526 85 333 2.0 4.0 0.00 0.00 0.00 69 1014.1
20260905195036 85 5 0.0 4.0 0.00 0.00 0.00 69 1014.1
20260905195004 86 351 1.0 1.0 0.00 0.00 0.00 70 1012.5
20260905194526 85 76 1.0 4.0 0.00 0.00 0.00 69 1014.1
20260905193526 86 63 2.0 8.0 0.00 0.00 0.00 68 1014.1
20260905193504 86 50 1.0 1.0 0.00 0.00 0.00 68 1012.5
20260905193031 86 264 2.0 8.0 0.00 0.00 0.00 67 1014.1
20260905192526 86 67 2.0 4.0 0.00 0.00 0.00 70 1014.1
20260905192504 87 67 1.0 1.0 0.00 0.00 0.00 69 1012.5
20260905192033 86 327 0.0 4.0 0.00 0.00 0.00 68 1014.2
20260905192004 87 327 1.0 1.0 0.00 0.00 0.00 69 1012.5
20260905191032 87 69 2.0 4.0 0.00 0.00 0.00 66 1014.0
20260905191005 87 68 1.0 1.0 0.00 0.00 0.00 66 1012.5
20260905190526 87 50 1.0 4.0 0.00 0.00 0.00 65 1014.0
20260905190029 87 35 3.0 4.0 0.00 0.00 0.00 68 1014.1
20260905185504 87 53 1.0 1.0 0.00 0.00 0.00 68 1012.5
20260905185029 87 81 0.0 3.0 0.00 0.00 0.00 68 1014.1
20260905184504 87 75 1.0 1.0 0.00 0.00 0.00 68 1012.5
20260905184029 86 43 1.0 3.0 0.00 0.00 0.00 67 1014.1
20260905184004 87 78 1.0 1.0 0.00 0.00 0.00 67 1012.5
20260905183526 86 40 0.0 4.0 0.00 0.00 0.00 69 1014.1
20260905183035 86 62 3.0 4.0 0.00 0.00 0.00 67 1014.0
20260905182526 86 49 1.0 4.0 0.00 0.00 0.00 68 1014.0
20260905182504 87 89 1.0 1.0 0.00 0.00 0.00 68 1012.5
20260905182031 87 91 0.0 4.0 0.00 0.00 0.00 66 1014.1
20260905182004 87 59 1.0 1.0 0.00 0.00 0.00 66 1012.5
20260905181527 87 75 2.0 6.0 0.00 0.00 0.00 68 1014.1
20260905180526 87 60 3.0 4.0 0.00 0.00 0.00 66 1014.1
20260905180504 88 68 2.0 2.0 0.00 0.00 0.00 66 1012.5
20260905180034 87 14 0.0 4.0 0.00 0.00 0.00 67 1014.1
20260905175525 88 68 1.0 4.0 0.00 0.00 0.00 65 1014.1
20260905175504 88 42 1.0 1.0 0.00 0.00 0.00 65 1012.5
20260905175033 88 78 0.0 3.0 0.00 0.00 0.00 67 1014.1
20260905174526 88 80 0.0 8.0 0.00 0.00 0.00 67 1014.0
20260905174504 88 74 1.0 1.0 0.00 0.00 0.00 68 1012.5
20260905174033 87 87 1.0 8.0 0.00 0.00 0.00 68 1014.0
20260905174004 88 87 1.0 1.0 0.00 0.00 0.00 66 1012.5
20260905173525 88 59 0.0 6.0 0.00 0.00 0.00 68 1013.9
20260905173034 88 62 1.0 8.0 0.00 0.00 0.00 65 1014.1
20260905172526 88 116 3.0 8.0 0.00 0.00 0.00 66 1014.1
20260905172504 89 112 2.0 2.0 0.00 0.00 0.00 66 1012.5
20260905172029 88 50 1.0 4.0 0.00 0.00 0.00 67 1014.1
20260905172004 89 47 1.0 1.0 0.00 0.00 0.00 67 1012.5
20260905171504 88 261 0.0 0.0 0.00 0.00 0.00 68 1012.5
20260905171026 88 57 1.0 2.0 0.00 0.00 0.00 68 1014.1
20260905170526 88 32 0.0 2.0 0.00 0.00 0.00 66 1014.2
20260905170504 89 30 0.0 0.0 0.00 0.00 0.00 67 1012.5
20260905170028 88 105 1.0 2.0 0.00 0.00 0.00 68 1014.2
20260905165526 88 360 0.0 4.0 0.00 0.00 0.00 70 1014.2
20260905165504 89 360 0.0 0.0 0.00 0.00 0.00 70 1012.5
20260905165029 88 360 2.0 4.0 0.00 0.00 0.00 69 1014.2
20260905164526 88 36 0.0 3.0 0.00 0.00 0.00 71 1014.2
20260905164504 88 32 0.0 0.0 0.00 0.00 0.00 71 1012.5
20260905164032 88 70 1.0 2.0 0.00 0.00 0.00 72 1014.2
20260905163526 87 67 0.0 4.0 0.00 0.00 0.00 72 1014.2
20260905163504 88 67 0.0 0.0 0.00 0.00 0.00 71 1012.5
20260905162504 87 43 0.0 0.0 0.00 0.00 0.00 75 1012.5
20260905162030 86 9 0.0 3.0 0.00 0.00 0.00 75 1014.3
20260905161526 85 76 0.0 4.0 0.00 0.00 0.00 76 1014.3
20260905161504 86 76 1.0 1.0 0.00 0.00 0.00 76 1012.5
20260905161029 85 96 1.0 4.0 0.00 0.00 0.00 76 1014.3
20260905160505 86 81 1.0 1.0 0.00 0.00 0.00 76 1012.5
20260905160030 85 84 1.0 6.0 0.00 0.00 0.00 76 1014.3
20260905155504 86 55 1.0 1.0 0.00 0.00 0.00 77 1012.5
20260905155031 85 71 2.0 4.0 0.00 0.00 0.00 79 1014.1
20260905154527 84 80 0.0 4.0 0.00 0.00 0.00 79 1014.0
20260905154504 85 80 1.0 1.0 0.00 0.00 0.00 79 1012.5
20260905154033 84 79 2.0 4.0 0.00 0.00 0.00 78 1013.9
20260905153526 84 76 1.0 6.0 0.00 0.00 0.00 79 1014.0
20260905153033 84 105 0.0 6.0 0.00 0.00 0.00 79 1014.0
20260905153004 84 105 1.0 1.0 0.00 0.00 0.00 79 1012.5
20260905152527 84 92 2.0 4.0 0.00 0.00 0.00 79 1014.0
20260905152029 84 78 0.0 4.0 0.00 0.00 0.00 78 1014.0
20260905152004 84 78 1.0 1.0 0.00 0.00 0.00 77 1012.5
20260905151525 84 78 3.0 4.0 0.00 0.00 0.00 77 1014.0
20260905150528 85 360 0.0 4.0 0.00 0.00 0.00 76 1013.9
20260905150504 86 360 1.0 1.0 0.00 0.00 0.00 76 1012.2
20260905150035 86 77 1.0 4.0 0.00 0.00 0.00 76 1013.9
20260905150004 86 76 1.0 1.0 0.00 0.00 0.00 76 1012.2
20260905145525 86 78 2.0 3.0 0.00 0.00 0.00 76 1013.7
20260905145030 86 89 1.0 3.0 0.00 0.00 0.00 76 1013.7
20260905145004 86 103 1.0 1.0 0.00 0.00 0.00 76 1012.2
20260905144004 86 55 0.0 0.0 0.00 0.00 0.00 79 1011.9
20260905143526 85 21 1.0 4.0 0.00 0.00 0.00 80 1013.4
20260905143504 86 21 0.0 0.0 0.00 0.00 0.00 80 1011.9
20260905143031 85 104 1.0 3.0 0.00 0.00 0.00 80 1013.4
20260905142525 84 76 1.0 2.0 0.00 0.00 0.00 81 1013.3
20260905142504 85 76 0.0 0.0 0.00 0.00 0.00 80 1011.9
20260905141504 84 32 0.0 0.0 0.00 0.00 0.00 81 1011.9
20260905141030 84 100 0.0 0.0 0.00 0.00 0.00 82 1013.4
20260905140525 84 101 0.0 4.0 0.00 0.00 0.00 83 1013.5
20260905140504 84 101 0.0 0.0 0.00 0.00 0.00 83 1011.9
20260905140027 83 105 4.0 4.0 0.00 0.00 0.00 84 1013.6
20260905140004 84 13 0.0 0.0 0.00 0.00 0.00 84 1012.2
20260905135525 83 11 0.0 1.0 0.00 0.00 0.00 85 1013.6
20260905135504 83 11 0.0 0.0 0.00 0.00 0.00 85 1012.2
20260905135029 82 11 0.0 2.0 0.00 0.00 0.00 85 1013.6
20260905135004 83 11 0.0 0.0 0.00 0.00 0.00 85 1012.2
20260905134527 82 11 1.0 2.0 0.00 0.00 0.00 87 1013.4
20260905134504 82 360 0.0 0.0 0.00 0.00 0.00 87 1011.9
20260905133525 80 312 1.0 2.0 0.00 0.00 0.00 89 1013.3
20260905133504 81 312 0.0 0.0 0.00 0.00 0.00 89 1011.9
20260905133033 80 250 0.0 0.0 0.00 0.00 0.00 90 1013.3
20260905132504 80 250 0.0 0.0 0.00 0.00 0.00 90 1011.9
20260905132028 79 250 0.0 0.0 0.00 0.00 0.00 90 1013.2
20260905131525 79 250 0.0 0.0 0.00 0.00 0.00 90 1013.3
20260905131504 79 250 0.0 0.0 0.00 0.00 0.00 90 1011.9
20260905131032 79 250 0.0 0.0 0.00 0.00 0.00 91 1013.3
20260905131004 79 250 0.0 0.0 0.00 0.00 0.00 91 1011.9
20260905130527 78 250 0.0 0.0 0.00 0.00 0.00 91 1013.2
20260905130027 78 250 0.0 0.0 0.00 0.00 0.00 92 1013.1
20260905130004 79 250 0.0 0.0 0.00 0.00 0.00 92 1011.5
20260905125525 78 250 0.0 0.0 0.00 0.00 0.00 92 1013.1
20260905125504 78 250 0.0 0.0 0.00 0.00 0.00 92 1011.5
20260905125029 78 250 0.0 0.0 0.00 0.00 0.00 92 1013.1
20260905124525 77 250 0.0 0.0 0.00 0.00 0.00 92 1013.0
20260905124504 78 250 0.0 0.0 0.00 0.00 0.00 92 1011.5
20260905124028 77 250 0.0 0.0 0.00 0.00 0.00 93 1013.0
20260905124003 78 250 0.0 0.0 0.00 0.00 0.00 93 1011.5
20260905123524 77 250 0.0 0.0 0.00 0.00 0.00 93 1013.0
20260905123504 78 250 0.0 0.0 0.00 0.00 0.00 93 1011.5
20260905123034 77 250 0.0 0.0 0.00 0.00 0.00 93 1012.9
20260905122525 77 250 0.0 0.0 0.00 0.00 0.00 93 1012.8
20260905122504 78 250 0.0 0.0 0.00 0.00 0.00 93 1011.2
20260905122031 77 250 0.0 0.0 0.00 0.00 0.00 93 1012.8
20260905122004 77 250 0.0 0.0 0.00 0.00 0.00 93 1011.2
20260905121525 77 250 0.0 0.0 0.00 0.00 0.00 93 1012.7
20260905121026 77 250 0.0 0.0 0.00 0.00 0.00 93 1012.6
20260905121005 77 250 0.0 0.0 0.00 0.00 0.00 93 1011.2
20260905120526 77 250 0.0 0.0 0.00 0.00 0.00 93 1012.5
20260905120504 77 250 0.0 0.0 0.00 0.00 0.00 93 1010.8
20260905115525 76 250 0.0 0.0 0.00 0.00 0.00 92 1012.4
20260905115504 77 250 0.0 0.0 0.00 0.00 0.00 92 1010.8
20260905114525 76 250 0.0 0.0 0.00 0.00 0.00 92 1012.4
20260905114504 77 250 0.0 0.0 0.00 0.00 0.00 92 1010.8
20260905114028 76 250 0.0 0.0 0.00 0.00 0.00 92 1012.4
20260905113526 76 250 0.0 0.0 0.00 0.00 0.00 92 1012.3
20260905113035 76 250 0.0 0.0 0.00 0.00 0.00 92 1012.3
20260905113004 77 250 0.0 0.0 0.00 0.00 0.00 92 1010.8
20260905112524 76 250 0.0 0.0 0.00 0.00 0.00 92 1012.1
20260905112504 77 250 0.0 0.0 0.00 0.00 0.00 92 1010.5
20260905112004 77 250 0.0 0.0 0.00 0.00 0.00 92 1010.5
20260905111526 76 250 0.0 0.0 0.00 0.00 0.00 92 1012.1
20260905111029 76 250 0.0 0.0 0.00 0.00 0.00 92 1012.0
20260905110030 76 250 0.0 0.0 0.00 0.00 0.00 92 1012.0
20260905105526 76 250 0.0 0.0 0.00 0.00 0.00 92 1012.1
20260905105029 76 250 0.0 0.0 0.00 0.00 0.00 92 1012.1
20260905104525 76 250 0.0 0.0 0.00 0.00 0.00 92 1012.1
20260905104027 76 250 0.0 0.0 0.00 0.00 0.00 92 1012.2
20260905103525 76 250 0.0 0.0 0.00 0.00 0.00 91 1012.3
20260905103033 76 250 0.0 0.0 0.00 0.00 0.00 91 1012.3
20260905102526 76 250 0.0 0.0 0.00 0.00 0.00 91 1012.3